Date,TemperatureHighF,TemperatureAvgF,TemperatureLowF,DewpointHighF,DewpointAvgF,DewpointLowF,HumidityHigh,HumidityAvg,HumidityLow,PressureMaxIn,PressureMinIn,WindSpeedMaxMPH,WindSpeedAvgMPH,GustSpeedMaxMPH,PrecipitationSumIn
2013-1-1,16.0,9.7,2.0,16.0,9.7,2.0,100,100,100,0.00,40.00,16,9,34,0.00
2013-1-2,22.0,13.5,6.0,13.0,-5.7,-21.0,100,48,13,0.00,40.00,13,8,24,0.00
2013-1-3,34.0,20.2,8.0,-8.0,-36.3,-64.0,33,10,1,0.00,40.00,15,8,19,0.00
2013-1-4,40.0,27.6,20.0,14.0,-44.4,-64.0,78,6,1,0.00,40.00,8,4,16,0.00
2013-1-5,40.0,27.6,19.0,16.0,3.4,-19.0,86,39,11,0.00,40.00,29,7,36,0.00
2013-1-6,30.0,25.4,23.0,-2.0,-11.1,-30.0,31,20,7,0.00,40.00,32,12,38,0.00
2013-1-7,33.0,25.0,20.0,-7.0,-18.5,-28.0,26,14,6,0.00,40.00,8,5,15,0.00
2013-1-9,32.0,27.8,25.0,28.0,24.9,19.0,100,90,58,0.00,40.00,34,28,44,0.00
2013-1-10,27.0,17.5,5.0,26.0,17.4,4.0,100,100,85,0.00,40.00,39,23,54,0.00
2013-1-11,5.0,-0.3,-3.0,5.0,-0.3,-3.0,100,100,100,0.00,40.00,27,12,35,0.00
2013-1-12,6.0,-4.6,-10.0,6.0,-4.6,-10.0,100,100,100,0.00,40.00,15,6,22,0.00
2013-1-13,6.0,-7.8,-12.0,3.0,-8.2,-12.0,100,98,82,0.00,40.00,6,3,12,0.00
2013-1-14,3.0,-3.8,-11.0,1.0,-6.4,-99.9,100,98,81,0.00,40.00,7,4,20,0.00
2013-1-15,20.0,8.7,-4.0,20.0,8.7,-4.0,100,100,100,0.00,40.00,14,8,30,0.00
2013-1-16,27.0,20.4,11.0,18.0,8.4,-5.0,100,66,29,0.00,40.00,19,11,42,0.00
2013-1-17,41.0,28.8,23.0,10.0,-1.1,-21.0,55,29,9,0.00,40.00,13,9,22,0.00
2013-1-18,42.0,30.4,26.0,0.0,-18.1,-57.0,30,14,1,0.00,40.00,12,5,24,0.00
2013-1-19,41.0,29.9,25.0,-7.0,-11.6,-18.0,23,16,10,0.00,40.00,10,5,19,0.00
2013-1-20,38.0,28.6,23.0,-3.0,-21.0,-31.0,21,11,5,0.00,40.00,10,4,20,0.00
2013-1-21,43.0,30.8,23.0,17.0,-9.6,-57.0,78,24,1,0.00,40.00,11,4,20,0.00
2013-1-22,54.0,38.6,32.0,-14.0,-45.1,-58.0,10,2,1,0.00,40.00,19,9,34,0.00
2013-1-23,41.0,34.7,31.0,31.0,-2.9,-35.0,100,30,3,0.00,40.00,25,15,45,0.00
2013-1-24,32.0,28.1,26.0,32.0,28.0,26.0,100,100,86,0.00,40.00,24,7,38,0.00
2013-1-25,30.0,26.6,25.0,30.0,26.6,25.0,100,100,100,0.00,40.00,14,5,19,0.00
2013-1-26,29.0,27.0,25.0,29.0,27.0,25.0,100,100,100,0.00,40.00,18,8,22,0.00
2013-1-27,26.0,21.0,12.0,26.0,21.0,12.0,100,100,100,0.00,40.00,40,17,68,0.00
2013-1-28,14.0,7.5,2.0,14.0,7.5,2.0,100,100,100,0.00,40.00,15,6,23,0.00
2013-1-29,12.0,7.5,3.0,12.0,7.5,3.0,100,100,100,0.00,40.00,18,10,34,0.00
2013-1-30,21.0,16.1,9.0,21.0,16.1,9.0,100,100,100,0.00,40.00,23,12,51,0.00
2013-1-31,24.0,19.7,17.0,24.0,19.7,17.0,100,100,100,0.00,40.00,16,6,33,0.00
2013-2-1,33.0,22.3,18.0,33.0,19.2,1.0,100,90,37,0.00,40.00,25,7,32,0.00
2013-2-2,42.0,27.9,20.0,20.0,-6.5,-60.0,69,29,1,0.00,40.00,9,4,14,0.00
2013-2-3,40.0,28.8,21.0,8.0,-24.5,-61.0,55,18,1,0.00,40.00,10,4,15,0.00
2013-2-4,31.0,25.1,19.0,26.0,12.7,4.0,100,61,39,0.00,40.00,12,7,29,0.00
2013-2-5,42.0,30.5,25.0,31.0,18.7,3.0,100,67,26,0.00,40.00,19,10,32,0.00
2013-2-6,31.0,24.1,16.0,26.0,15.3,-28.0,100,74,10,0.00,40.00,16,6,24,0.00
2013-2-7,25.0,20.6,16.0,21.0,-6.3,-37.0,100,43,6,0.00,40.00,33,18,50,0.00
2013-2-8,19.0,16.7,12.0,19.0,16.7,12.0,100,100,100,0.00,40.00,30,19,36,0.00
2013-2-9,20.0,11.5,8.0,20.0,11.5,7.0,100,100,100,0.00,40.00,16,6,25,0.00
2013-2-10,18.0,9.9,5.0,18.0,9.9,5.0,100,100,100,0.00,40.00,13,4,22,0.00
2013-2-11,22.0,8.2,2.0,22.0,7.9,-6.0,100,99,60,0.00,40.00,13,4,23,0.00
2013-2-12,23.0,10.2,2.0,23.0,10.2,2.0,100,100,100,0.00,40.00,9,5,32,0.00
2013-2-13,29.0,18.2,12.0,29.0,18.2,12.0,100,100,100,0.00,40.00,15,6,28,0.00
2013-2-14,31.0,18.4,14.0,31.0,18.2,12.0,100,99,83,0.00,40.00,11,7,33,0.00
2013-2-15,36.0,20.7,12.0,30.0,16.2,0.0,100,85,32,0.00,40.00,11,5,25,0.00
2013-2-16,37.0,29.0,24.0,18.0,3.9,-22.0,61,37,9,0.00,40.00,14,7,22,0.00
2013-2-17,30.0,20.0,7.0,26.0,7.7,-17.0,100,68,13,0.00,40.00,35,12,49,0.00
2013-2-18,17.0,12.0,6.0,17.0,2.9,-21.0,100,76,16,0.00,40.00,25,8,33,0.00
2013-2-19,24.0,18.2,15.0,21.0,11.4,-9.0,100,77,30,0.00,40.00,32,22,36,0.00
2013-2-20,27.0,17.6,14.0,27.0,17.6,14.0,100,100,100,0.00,40.00,23,12,31,0.00
2013-2-21,23.0,11.8,5.0,23.0,11.8,5.0,100,100,100,0.00,40.00,20,9,28,0.00
2013-2-22,16.0,9.0,5.0,16.0,9.0,5.0,100,100,100,0.00,40.00,14,7,30,0.00
2013-2-23,17.0,9.7,4.0,17.0,9.7,4.0,100,100,100,0.00,40.00,37,14,53,0.00
2013-2-24,20.0,8.6,4.0,20.0,8.6,4.0,100,100,100,0.00,40.00,14,8,31,0.00
2013-2-25,32.0,15.4,5.0,24.0,2.4,-23.0,100,64,15,0.00,40.00,8,4,14,0.00
2013-2-27,25.0,17.0,10.0,20.0,7.2,-4.0,100,68,31,0.00,40.00,8,4,21,0.00
2013-2-28,27.0,18.8,14.0,26.0,14.9,1.0,100,86,54,0.00,40.00,15,8,28,0.00
2013-3-1,40.0,25.4,21.0,40.0,25.4,21.0,100,100,100,0.00,40.00,25,6,43,0.00
2013-3-2,41.0,33.5,22.0,31.0,12.9,-20.0,100,46,7,0.00,40.00,18,7,33,0.00
2013-3-3,33.0,27.3,23.0,33.0,27.2,23.0,100,100,77,0.00,40.00,17,7,29,0.00
2013-3-4,24.0,16.2,11.0,23.0,11.8,-18.0,100,85,22,0.00,40.00,22,11,40,0.00
2013-3-5,31.0,25.9,13.0,22.0,-14.4,-67.0,92,28,1,0.00,40.00,28,14,39,0.00
2013-3-6,32.0,27.3,23.0,32.0,27.0,23.0,100,99,81,0.00,40.00,35,23,55,0.00
2013-3-7,30.0,25.4,21.0,28.0,23.2,13.0,100,93,49,0.00,40.00,26,9,40,0.00
2013-3-8,26.0,24.0,22.0,26.0,24.0,22.0,100,100,100,0.00,40.00,21,10,26,0.00
2013-3-9,28.0,21.6,13.0,28.0,21.6,13.0,100,100,100,0.00,40.00,16,10,30,0.00
2013-3-10,37.0,22.6,14.0,25.0,14.1,-2.0,100,74,31,0.00,40.00,16,7,28,0.00
2013-3-11,29.0,25.2,22.0,29.0,22.8,7.0,100,91,50,0.00,40.00,19,10,41,0.00
2013-3-12,38.0,28.5,24.0,38.0,28.5,24.0,100,100,100,0.00,40.00,16,8,31,0.00
2013-3-13,45.0,35.9,30.0,41.0,31.5,10.0,100,86,46,0.00,40.00,15,6,24,0.00
2013-3-14,50.0,42.9,38.0,28.0,17.3,8.0,52,36,18,0.00,40.00,14,6,20,0.00
2013-3-15,47.0,42.0,36.0,35.0,18.7,6.0,88,40,25,0.00,40.00,14,6,21,0.00
2013-3-16,38.0,32.8,28.0,34.0,20.3,-6.0,100,64,19,0.00,40.00,11,7,22,0.00
2013-3-17,31.0,21.2,15.0,30.0,20.9,15.0,100,99,76,0.00,40.00,28,16,58,0.00
2013-3-18,25.0,18.6,14.0,24.0,17.9,14.0,100,98,79,0.00,40.00,22,10,41,0.00
2013-3-19,37.0,24.8,17.0,20.0,-15.1,-66.0,100,27,1,0.00,40.00,16,8,24,0.00
2013-3-20,31.0,27.4,26.0,31.0,22.5,2.0,100,85,34,0.00,40.00,28,14,47,0.00
2013-3-21,30.0,18.5,12.0,30.0,17.1,6.0,100,95,70,0.00,40.00,31,15,47,0.00
2013-3-22,17.0,9.2,4.0,17.0,9.2,4.0,100,100,100,0.00,40.00,18,7,34,0.00
2013-3-23,18.0,7.0,3.0,18.0,7.0,3.0,100,100,100,0.00,40.00,14,7,23,0.00
2013-3-24,22.0,10.0,3.0,22.0,9.8,3.0,100,99,76,0.00,40.00,10,4,19,0.00
2013-3-25,30.0,18.6,8.0,29.0,9.8,-53.0,100,79,3,0.00,40.00,11,7,17,0.00
2013-3-26,36.0,28.4,23.0,31.0,26.4,19.0,100,93,49,0.00,40.00,23,12,37,0.00
2013-3-27,42.0,33.3,27.0,34.0,26.0,19.0,100,77,48,0.00,40.00,11,6,21,0.00
2013-3-28,41.0,36.1,32.0,37.0,27.0,13.0,100,71,40,0.00,40.00,20,9,29,0.00
2013-3-29,45.0,35.7,30.0,40.0,34.0,30.0,100,94,61,0.00,40.00,13,8,27,0.00
2013-3-30,44.0,37.8,33.0,39.0,31.1,-99.9,100,84,44,0.00,40.00,12,7,22,0.00
2013-3-31,46.0,38.1,31.0,35.0,16.8,-30.0,100,52,4,0.00,40.00,11,6,20,0.00
2013-4-1,36.0,29.7,26.0,36.0,29.7,26.0,100,100,96,0.00,40.00,30,9,71,0.00
2013-4-2,37.0,29.4,26.0,37.0,29.4,26.0,100,100,100,0.00,40.00,18,9,33,0.00
2013-4-3,49.0,35.5,29.0,45.0,32.5,21.0,100,90,54,0.00,40.00,16,6,22,0.00
2013-4-4,44.0,39.2,35.0,40.0,32.5,29.0,100,78,56,0.00,40.00,26,14,46,0.00
2013-4-5,39.0,32.4,27.0,38.0,31.8,27.0,100,98,74,0.00,40.00,34,15,50,0.00
2013-4-6,36.0,31.0,27.0,36.0,31.0,27.0,100,100,100,0.00,40.00,11,6,22,0.00
2013-4-7,36.0,31.1,26.0,36.0,28.6,13.0,100,92,38,0.00,40.00,17,8,35,0.00
2013-4-8,34.0,26.1,14.0,32.0,25.0,12.0,100,96,55,0.00,40.00,20,10,38,0.00
2013-4-9,20.0,9.9,5.0,20.0,9.9,5.0,100,100,100,0.00,40.00,23,17,41,0.00
2013-4-10,34.0,20.5,10.0,34.0,20.5,10.0,100,100,100,0.00,40.00,14,9,32,0.00
2013-4-11,40.0,29.5,26.0,38.0,29.3,26.0,100,100,80,0.00,40.00,17,6,35,0.00
2013-4-12,42.0,29.9,23.0,37.0,24.9,4.0,100,84,30,0.00,40.00,15,6,24,0.00
2013-4-13,34.0,28.3,18.0,32.0,24.6,8.0,100,88,38,0.00,40.00,24,12,38,0.00
2013-4-14,25.0,16.2,9.0,22.0,8.8,-9.0,100,78,27,0.00,40.00,20,8,33,0.00
2013-4-15,32.0,20.3,15.0,30.0,20.3,15.0,100,100,92,0.00,40.00,20,7,29,0.00
2013-4-16,24.0,17.4,11.0,24.0,17.4,10.0,100,100,100,0.00,40.00,13,7,22,0.00
2013-4-17,21.0,12.1,7.0,21.0,12.1,7.0,100,100,96,0.00,40.00,16,9,32,0.00
2013-4-18,28.0,16.4,8.0,14.0,6.4,-5.0,100,67,35,0.00,40.00,15,10,37,0.00
2013-4-19,35.0,25.5,19.0,35.0,24.3,13.0,100,96,73,0.00,40.00,16,8,25,0.00
2013-4-20,35.0,27.0,24.0,35.0,27.0,24.0,100,100,100,0.00,40.00,19,7,27,0.00
2013-4-21,37.0,30.3,25.0,36.0,28.1,23.0,100,92,73,0.00,40.00,12,6,23,0.00
2013-4-22,32.0,26.2,16.0,32.0,25.6,16.0,100,98,66,0.00,40.00,13,7,28,0.00
2013-4-23,33.0,20.6,10.0,18.0,6.3,-35.0,100,66,6,0.00,40.00,13,6,30,0.00
2013-4-24,40.0,28.8,18.0,13.0,-4.4,-18.0,53,25,8,0.00,40.00,9,5,17,0.00
2013-4-25,45.0,33.1,27.0,17.0,4.9,-34.0,56,31,4,0.00,40.00,18,9,26,0.00
2013-4-26,48.0,37.7,30.0,15.0,6.4,-14.0,41,28,10,0.00,40.00,13,6,18,0.00
2013-4-27,48.0,42.0,35.0,25.0,13.2,-4.0,65,32,16,0.00,40.00,14,7,24,0.00
2013-4-28,49.0,45.7,42.0,25.0,20.0,16.0,50,36,28,0.00,40.00,16,9,29,0.00
2013-4-29,48.0,41.7,35.0,36.0,25.8,14.0,95,54,34,0.00,40.00,13,9,28,0.00
2013-4-30,41.0,32.5,20.0,39.0,22.1,-3.0,100,70,28,0.00,40.00,17,9,30,0.00
2013-5-1,28.0,19.7,13.0,26.0,14.1,-3.0,100,82,37,0.00,40.00,15,8,31,0.00
2013-5-2,45.0,29.3,17.0,18.0,4.6,-11.0,100,46,10,0.00,40.00,15,9,26,0.00
2013-5-3,51.0,39.3,32.0,9.0,-1.2,-43.0,36,20,2,0.00,40.00,13,4,18,0.00
2013-5-13,63.0,59.5,55.0,29.0,21.8,17.0,31,24,17,0.00,40.00,16,9,21,0.00
2013-5-14,63.0,57.1,52.0,28.0,22.4,11.0,35,26,14,0.00,40.00,16,7,25,0.00
2013-5-15,61.0,52.8,47.0,44.0,30.2,15.0,86,46,17,0.00,40.00,28,11,38,0.00
2013-5-16,54.0,44.0,42.0,49.0,20.8,-99.9,100,76,34,0.00,40.00,22,13,39,0.00
2013-5-17,47.0,40.1,32.0,43.0,35.1,-99.9,100,95,61,0.00,40.00,34,14,55,0.00
2013-5-18,39.0,32.8,30.0,39.0,32.8,30.0,100,100,100,0.00,40.00,16,8,28,0.00
2013-5-19,39.0,32.6,27.0,39.0,32.6,27.0,100,100,100,0.00,40.00,16,7,52,0.00
2013-5-20,45.0,34.7,28.0,45.0,34.7,28.0,100,100,100,0.00,40.00,13,6,26,0.00
2013-5-21,50.0,41.4,34.0,43.0,32.8,21.0,100,77,34,0.00,40.00,23,10,29,0.00
2013-5-22,56.0,48.3,41.0,31.0,21.9,6.0,66,38,15,0.00,40.00,34,23,54,0.00
2013-5-23,53.0,44.5,33.0,37.0,23.6,11.0,100,50,21,0.00,40.00,41,24,69,0.00
2013-5-24,51.0,40.5,30.0,34.0,12.1,-15.0,100,40,6,0.00,40.00,20,11,32,0.00
2013-5-25,55.0,48.4,42.0,19.0,9.1,-3.0,37,21,10,0.00,40.00,23,16,45,0.00
2013-5-26,55.0,48.0,42.0,19.0,3.2,-4.0,33,16,10,0.00,40.00,30,17,41,0.00
2013-5-27,51.0,45.2,38.0,41.0,30.3,17.0,100,60,31,0.00,40.00,16,9,35,0.00
2013-5-28,45.0,35.7,29.0,43.0,34.0,18.0,100,95,34,0.00,40.00,21,9,32,0.00
2013-5-29,39.0,32.1,28.0,39.0,32.1,28.0,100,100,100,0.00,40.00,34,6,114,0.00
2013-5-30,42.0,34.3,28.0,41.0,33.6,28.0,100,97,77,0.00,40.00,12,6,24,0.00
2013-5-31,50.0,38.2,30.0,35.0,21.2,5.0,100,59,20,0.00,40.00,22,9,36,0.00
2013-6-1,60.0,45.4,34.0,28.0,15.5,-4.0,54,32,10,0.00,40.00,10,5,21,0.00
2013-6-2,65.0,54.7,46.0,18.0,11.0,0.0,27,18,9,0.00,40.00,21,12,33,0.00
2013-6-3,58.0,49.7,44.0,47.0,3.4,-34.0,100,27,2,0.00,40.00,27,11,36,0.00
2013-6-4,60.0,51.5,44.0,34.0,14.7,-2.0,68,24,12,0.00,40.00,10,5,20,0.00
2013-6-5,63.0,52.4,40.0,42.0,29.0,-6.0,100,48,9,0.00,40.00,12,5,19,0.00
2013-6-6,65.0,54.6,45.0,38.0,26.5,11.0,71,37,14,0.00,40.00,12,6,20,0.00
2013-6-7,65.0,57.4,50.0,38.0,30.3,20.0,54,36,24,0.00,40.00,11,6,24,0.00
2013-6-8,67.0,57.9,49.0,51.0,25.4,8.0,100,37,11,0.00,40.00,12,6,33,0.00
2013-6-9,73.0,63.0,54.0,32.0,19.8,12.0,27,19,11,0.00,40.00,16,6,29,0.00
2013-6-10,69.0,63.3,59.0,26.0,11.9,-13.0,25,15,4,0.00,40.00,23,13,40,0.00
2013-6-11,64.0,55.7,50.0,17.0,8.3,0.0,23,15,9,0.00,40.00,20,12,43,0.00
2013-6-12,62.0,56.7,51.0,37.0,21.7,8.0,47,27,12,0.00,40.00,25,13,50,0.00
2013-6-13,62.0,57.6,55.0,31.0,23.1,11.0,38,27,13,0.00,40.00,28,20,55,0.00
2013-6-15,58.0,55.3,54.0,19.0,8.8,1.0,22,16,11,0.00,40.00,8,5,11,0.00
2013-6-16,64.0,57.2,52.0,24.0,1.3,-41.0,27,12,1,0.00,40.00,20,13,32,0.00
2013-6-17,66.0,59.6,54.0,16.0,-10.4,-41.0,19,7,1,0.00,40.00,19,8,31,0.00
2013-6-18,65.0,59.5,55.0,13.0,-3.8,-42.0,17,8,1,0.00,40.00,28,14,42,0.00
2013-6-19,58.0,51.0,39.0,23.0,8.4,-17.0,32,19,4,0.00,40.00,28,18,57,0.00
2013-6-20,54.0,42.4,35.0,21.0,10.3,-3.0,37,27,13,0.00,40.00,17,7,25,0.00
2013-6-22,58.0,51.5,45.0,42.0,22.7,13.0,68,33,20,0.00,40.00,16,7,26,0.00
2013-6-23,61.0,52.8,43.0,30.0,16.5,5.0,36,24,14,0.00,40.00,22,11,35,0.00
2013-6-24,58.0,51.8,41.0,43.0,26.1,13.0,100,43,21,0.00,40.00,26,15,45,0.00
2013-6-25,59.0,46.6,41.0,54.0,43.7,41.0,100,91,59,0.00,40.00,16,8,23,0.00
2013-6-26,70.0,63.8,55.0,52.0,44.3,37.0,70,50,31,0.00,40.00,20,9,36,0.00
2013-6-27,78.0,67.4,61.0,54.0,40.8,33.0,64,39,26,0.00,40.00,18,6,23,0.00
2013-6-28,81.0,68.8,64.0,42.0,31.3,20.0,43,26,11,0.00,40.00,14,6,27,0.00
2013-6-29,80.0,69.6,64.0,37.0,23.7,18.0,24,18,11,0.00,40.00,10,5,17,0.00
2013-6-30,78.0,67.0,58.0,52.0,38.0,20.0,72,37,15,0.00,40.00,16,8,25,0.00
2013-7-1,78.0,65.2,60.0,44.0,33.0,22.0,42,31,20,0.00,40.00,17,12,23,0.00
2013-7-2,78.0,66.4,61.0,45.0,31.7,22.0,43,28,15,0.00,40.00,14,10,25,0.00
2013-7-3,79.0,67.7,60.0,51.0,40.6,22.0,63,39,19,0.00,40.00,12,6,23,0.00
2013-7-4,66.0,57.2,48.0,66.0,54.8,48.0,100,93,66,0.00,40.00,16,7,33,0.00
2013-7-14,74.0,66.6,59.0,50.0,41.8,39.0,73,42,32,0.00,40.00,10,4,16,0.00
2013-7-15,73.0,64.1,58.0,58.0,46.7,40.0,100,54,39,0.00,40.00,15,5,21,0.00
2013-7-16,68.0,60.6,57.0,62.0,57.5,54.0,100,91,74,0.00,40.00,13,7,17,0.00
2013-7-23,77.0,71.1,64.0,24.0,17.0,2.0,17,13,7,0.00,40.00,9,6,14,0.00
2013-7-24,66.0,61.7,59.0,59.0,30.4,-2.0,100,42,7,0.00,40.00,19,6,26,0.00
2013-7-25,75.0,65.5,58.0,52.0,37.6,25.0,74,39,19,0.00,40.00,13,5,18,0.00
2013-7-26,76.0,65.6,59.0,39.0,28.0,18.0,45,26,12,0.00,40.00,11,6,20,0.00
2013-7-27,64.0,57.7,51.0,62.0,43.9,12.0,100,71,13,0.00,40.00,17,7,25,0.00
2013-7-28,63.0,52.3,45.0,58.0,51.3,45.0,100,97,58,0.00,40.00,16,6,38,0.00
2013-7-29,61.0,54.0,50.0,61.0,49.0,39.0,100,84,53,0.00,40.00,16,8,25,0.00
2013-7-30,67.0,61.1,51.0,53.0,38.9,26.0,100,49,24,0.00,40.00,14,9,23,0.00
2013-7-31,70.0,63.2,56.0,51.0,31.9,19.0,66,34,15,0.00,40.00,16,11,30,0.00
2013-8-1,68.0,59.3,52.0,58.0,45.1,24.0,100,66,23,0.00,40.00,29,17,40,0.00
2013-8-2,67.0,59.9,52.0,56.0,26.5,7.0,100,35,10,0.00,40.00,25,11,36,0.00
2013-8-3,67.0,60.9,55.0,31.0,18.1,11.0,34,19,11,0.00,40.00,18,11,40,0.00
2013-8-4,71.0,62.3,56.0,34.0,26.2,18.0,36,25,18,0.00,40.00,18,10,31,0.00
2013-8-5,72.0,62.0,55.0,48.0,33.4,20.0,57,36,17,0.00,40.00,19,8,31,0.00
2013-8-6,75.0,63.4,57.0,35.0,25.9,7.0,43,25,8,0.00,40.00,12,6,19,0.00
2013-8-7,73.0,60.4,50.0,50.0,29.0,12.0,100,34,15,0.00,40.00,25,7,40,0.00
2013-8-8,70.0,56.9,48.0,51.0,38.0,17.0,100,54,19,0.00,40.00,19,7,36,0.00
2013-8-9,63.0,54.3,47.0,50.0,36.5,23.0,100,54,24,0.00,40.00,36,15,47,0.00
2013-8-10,63.0,55.3,51.0,47.0,41.2,21.0,73,60,20,0.00,40.00,28,16,34,0.00
2013-8-11,66.0,57.6,51.0,48.0,39.0,20.0,76,53,19,0.00,40.00,23,13,31,0.00
2013-8-12,60.0,54.9,52.0,50.0,40.8,26.0,77,60,31,0.00,40.00,19,12,26,0.00
2013-8-13,70.0,58.5,52.0,47.0,26.8,-99.9,74,35,11,0.00,40.00,14,8,23,0.00
2013-8-14,69.0,56.2,52.0,42.0,25.6,-99.9,69,38,11,0.00,40.00,20,13,25,0.00
2013-8-15,74.0,41.1,59.0,20.0,-25.0,-99.9,22,11,6,0.00,40.00,14,8,23,0.00
2013-8-16,71.0,60.7,62.0,26.0,12.8,-99.9,24,18,13,0.00,40.00,9,5,21,0.00
2013-8-17,72.0,61.2,46.0,53.0,34.7,-99.9,100,43,20,0.00,40.00,27,9,43,0.00
2013-8-18,73.0,63.7,57.0,56.0,45.3,35.0,68,52,33,0.00,40.00,13,6,16,0.00
2013-8-19,74.0,58.7,53.0,59.0,35.5,-99.9,100,57,32,0.00,40.00,17,6,69,0.00
2013-9-6,69.0,62.2,55.0,58.0,46.2,31.0,100,64,24,0.00,40.00,17,10,29,0.00
2013-9-7,69.0,54.8,45.0,63.0,52.3,-99.9,100,95,55,0.00,40.00,20,8,37,0.00
2013-9-8,56.0,48.9,43.0,56.0,48.9,43.0,100,100,100,0.00,40.00,14,6,20,0.00
2013-9-9,60.0,50.6,47.0,56.0,49.8,45.0,100,98,62,0.00,40.00,8,4,13,0.00
2013-9-10,55.0,48.8,45.0,55.0,48.8,45.0,100,100,100,0.00,40.00,18,8,27,0.00
2013-9-11,59.0,48.0,43.0,59.0,48.0,43.0,100,100,100,0.00,40.00,23,13,28,0.00
2013-9-12,53.0,46.7,40.0,53.0,46.7,40.0,100,100,100,0.00,40.00,33,13,48,0.00
2013-9-13,50.0,46.0,43.0,50.0,46.0,43.0,100,100,100,0.00,40.00,16,11,28,0.00
2013-9-16,63.0,55.6,50.0,57.0,50.1,45.0,100,84,55,0.00,40.00,22,11,32,0.00
2013-9-17,54.0,49.8,47.0,54.0,49.8,47.0,100,100,100,0.00,40.00,23,16,44,0.00
2013-9-18,38.0,38.0,38.0,3.0,0.0,-3.0,22,20,17,0.00,40.00,9,8,14,0.00
2013-9-19,55.0,43.1,33.0,37.0,30.5,5.0,100,64,25,0.00,40.00,14,5,17,0.00
2013-9-20,60.0,49.3,41.0,39.0,25.0,12.0,67,40,21,0.00,40.00,22,15,30,0.00
2013-9-21,58.0,50.9,47.0,37.0,28.2,-99.9,67,43,30,0.00,40.00,30,19,52,0.00
2013-9-22,52.0,45.0,37.0,48.0,37.8,32.0,100,78,54,0.00,40.00,23,14,42,0.00
2013-9-23,48.0,38.8,32.0,43.0,35.9,22.0,100,91,44,0.00,40.00,12,7,31,0.00
2013-9-24,55.0,46.7,39.0,37.0,21.7,-2.0,93,43,10,0.00,40.00,37,19,51,0.00
2013-9-25,48.0,36.1,24.0,38.0,26.4,17.0,100,74,29,0.00,40.00,28,18,52,0.00
2013-9-26,35.0,27.4,24.0,35.0,27.4,24.0,100,100,100,0.00,40.00,14,6,31,0.00
2013-9-27,29.0,24.5,22.0,29.0,24.5,22.0,100,100,100,0.00,40.00,18,6,30,0.00
2013-9-28,44.0,33.1,25.0,41.0,24.9,-99.9,100,79,19,0.00,40.00,13,7,21,0.00
2013-9-29,51.0,42.5,36.0,35.0,20.0,6.0,74,41,27,0.00,40.00,22,13,40,0.00
2013-9-30,55.0,46.7,40.0,29.0,23.0,18.0,48,39,34,0.00,40.00,21,11,43,0.00
2013-10-1,53.0,48.8,47.0,18.0,17.5,17.0,31,29,24,0.00,40.00,13,9,24,0.00
2013-10-2,51.0,44.2,34.0,43.0,29.6,19.0,100,59,32,0.00,40.00,24,11,44,0.00
2013-10-3,39.0,26.5,19.0,39.0,26.5,19.0,100,100,100,0.00,40.00,29,10,43,0.00
2013-10-4,31.0,21.8,16.0,31.0,21.8,16.0,100,100,100,0.00,40.00,13,6,25,0.00
2013-10-5,42.0,28.0,20.0,37.0,20.8,-5.0,100,81,19,0.00,40.00,11,6,25,0.00
2013-10-6,59.0,47.7,33.0,37.0,27.8,3.0,88,49,15,0.00,40.00,10,4,14,0.00
2013-10-7,54.0,49.3,45.0,16.0,5.3,-9.0,23,17,9,0.00,40.00,20,12,32,0.00
2013-10-8,46.0,41.8,38.0,18.0,9.9,1.0,44,27,16,0.00,40.00,27,16,47,0.00
2013-10-9,43.0,38.2,34.0,37.0,21.8,5.0,100,55,24,0.00,40.00,35,20,51,0.00
2013-10-10,35.0,29.9,27.0,35.0,29.9,27.0,100,100,100,0.00,40.00,21,9,32,0.00
2013-10-11,35.0,29.0,24.0,34.0,28.1,22.0,100,97,74,0.00,40.00,17,6,35,0.00
2013-10-12,42.0,33.1,28.0,35.0,24.2,-99.9,100,75,51,0.00,40.00,28,12,37,0.00
2013-10-13,34.0,30.5,27.0,34.0,30.5,27.0,100,100,100,0.00,40.00,27,15,40,0.00
2013-10-14,31.0,25.8,22.0,31.0,25.8,22.0,100,100,100,0.00,40.00,12,6,24,0.00
2013-10-15,31.0,23.1,18.0,31.0,23.1,18.0,100,100,100,0.00,40.00,12,6,21,0.00
2013-10-16,37.0,23.2,18.0,28.0,20.1,14.0,100,90,52,0.00,40.00,6,3,15,0.00
2013-10-17,36.0,31.3,26.0,29.0,24.2,15.0,100,77,46,0.00,40.00,10,6,25,0.00
2013-10-18,41.0,29.8,23.0,29.0,19.7,-2.0,100,72,24,0.00,40.00,11,7,24,0.00
2013-10-19,45.0,34.3,29.0,14.0,4.3,-99.9,37,29,19,0.00,40.00,16,6,29,0.00
2013-10-20,43.0,36.0,31.0,28.0,15.2,8.0,86,43,31,0.00,40.00,19,8,29,0.00
2013-10-21,48.0,37.6,28.0,30.0,24.6,19.0,100,63,35,0.00,40.00,10,6,18,0.00
2013-10-22,55.0,44.4,37.0,23.0,15.8,6.0,56,33,20,0.00,40.00,8,4,11,0.00
2013-10-23,55.0,44.4,40.0,22.0,14.0,3.0,43,29,18,0.00,40.00,13,4,18,0.00
2013-10-24,53.0,45.1,41.0,19.0,14.5,6.0,40,29,19,0.00,40.00,15,6,20,0.00
2013-10-25,51.0,43.3,37.0,21.0,12.9,8.0,46,29,18,0.00,40.00,11,5,19,0.00
2013-10-26,53.0,41.4,36.0,25.0,12.5,-99.9,61,34,16,0.00,40.00,11,5,16,0.00
2013-10-27,47.0,40.6,35.0,36.0,14.3,1.0,100,37,19,0.00,40.00,27,13,38,0.00
2013-10-28,37.0,30.2,24.0,35.0,28.1,-99.9,100,97,60,0.00,40.00,55,25,68,0.00
2013-10-29,27.0,22.8,21.0,27.0,22.8,20.0,100,100,100,0.00,40.00,19,8,26,0.00
2013-10-30,27.0,21.3,19.0,27.0,21.3,19.0,100,100,100,0.00,40.00,14,6,26,0.00
2013-10-31,30.0,23.8,20.0,30.0,23.8,20.0,100,100,100,0.00,40.00,17,6,30,0.00
2013-11-1,37.0,29.0,24.0,37.0,28.4,15.0,100,98,46,0.00,40.00,11,6,26,0.00
2013-11-2,46.0,39.0,32.0,8.0,-1.5,-99.9,36,19,11,0.00,40.00,32,16,56,0.00
2013-11-3,36.0,21.0,10.0,26.0,15.7,8.0,100,85,31,0.00,40.00,28,10,45,0.00
2013-11-4,20.0,12.7,10.0,20.0,12.7,10.0,100,100,100,0.00,40.00,13,6,22,0.00
2013-11-5,23.0,13.9,9.0,19.0,12.0,7.0,100,93,58,0.00,40.00,17,6,24,0.00
2013-11-6,30.0,23.8,19.0,30.0,23.8,19.0,100,100,100,0.00,40.00,16,8,25,0.00
2013-11-7,39.0,34.6,28.0,34.0,22.8,9.0,100,67,30,0.00,40.00,23,12,42,0.00
2013-11-8,40.0,35.5,32.0,23.0,17.9,13.0,60,48,35,0.00,40.00,18,9,35,0.00
2013-11-9,47.0,37.6,35.0,19.0,14.5,-99.9,50,40,26,0.00,40.00,15,7,26,0.00
2013-11-10,49.0,40.6,37.0,16.0,10.1,7.0,34,28,21,0.00,40.00,13,4,18,0.00
2013-11-11,54.0,43.6,38.0,15.0,9.1,0.0,30,24,16,0.00,40.00,10,4,16,0.00
2013-11-12,52.0,43.2,38.0,12.0,3.6,-6.0,23,19,13,0.00,40.00,11,6,14,0.00
2013-11-13,45.0,37.7,28.0,32.0,14.2,1.0,100,47,18,0.00,40.00,12,6,24,0.00
2013-11-14,37.0,30.5,26.0,28.0,8.2,-15.0,100,47,10,0.00,40.00,24,9,47,0.00
2013-11-15,30.0,22.9,14.0,26.0,19.8,9.0,100,90,41,0.00,40.00,15,7,31,0.00
2013-11-16,20.0,18.1,15.0,20.0,17.0,-99.9,100,99,97,0.00,40.00,22,10,45,0.00
2013-11-17,29.0,24.0,19.0,29.0,23.4,19.0,100,98,73,0.00,40.00,18,9,39,0.00
2013-11-18,36.0,31.4,27.0,33.0,20.1,5.0,100,67,28,0.00,40.00,19,10,32,0.00
2013-11-19,34.0,28.7,26.0,31.0,27.8,26.0,100,97,71,0.00,40.00,24,8,45,0.00
2013-11-20,30.0,27.0,25.0,30.0,27.0,25.0,100,100,100,0.00,40.00,12,6,18,0.00
2013-11-21,26.0,19.0,12.0,26.0,19.0,12.0,100,100,100,0.00,40.00,18,8,30,0.00
2013-11-22,26.0,16.7,12.0,16.0,6.3,-15.0,100,73,16,0.00,40.00,20,15,27,0.00
2013-11-23,26.0,23.2,22.0,24.0,10.5,-99.9,100,72,20,0.00,40.00,28,18,36,0.00
2013-11-24,34.0,25.4,21.0,34.0,22.6,-1.0,100,91,35,0.00,40.00,18,7,23,0.00
2013-11-25,34.0,27.2,22.0,23.0,13.0,1.0,93,57,36,0.00,40.00,14,7,28,0.00
2013-11-26,45.0,31.8,25.0,21.0,13.1,-12.0,86,51,12,0.00,40.00,12,7,20,0.00
2013-11-27,40.0,36.1,33.0,15.0,5.9,-4.0,42,28,15,0.00,40.00,13,7,15,0.00
2013-11-28,36.0,31.9,28.0,20.0,8.2,-1.0,72,38,25,0.00,40.00,23,12,28,0.00
2013-11-29,38.0,29.6,27.0,28.0,17.4,4.0,77,60,35,0.00,40.00,10,3,13,0.00
2013-11-30,38.0,28.9,24.0,26.0,12.4,-99.9,100,56,27,0.00,40.00,10,4,14,0.00
2013-12-1,31.0,26.6,23.0,31.0,26.6,23.0,100,100,98,0.00,40.00,17,8,35,0.00
2013-12-2,32.0,28.4,25.0,31.0,25.0,16.0,100,88,52,0.00,40.00,17,10,40,0.00
2013-12-3,25.0,13.6,2.0,25.0,13.6,1.0,100,100,100,0.00,40.00,15,6,30,0.00
2013-12-4,5.0,-3.1,-9.0,5.0,-3.1,-9.0,100,100,100,0.00,40.00,14,6,25,0.00
2013-12-5,7.0,-6.2,-10.0,7.0,-6.2,-10.0,100,100,100,0.00,40.00,8,4,12,0.00
2013-12-6,1.0,-4.4,-10.0,1.0,-4.4,-10.0,100,100,100,0.00,40.00,19,9,34,0.00
2013-12-7,8.0,3.2,0.0,8.0,2.0,-99.9,100,99,100,0.00,40.00,29,18,40,0.00
2013-12-8,3.0,-3.7,-7.0,3.0,-3.7,-7.0,100,100,100,0.00,40.00,25,10,36,0.00
2013-12-9,10.0,-6.8,-10.0,9.0,-11.8,-99.9,100,100,100,0.00,40.00,19,8,29,0.00
2013-12-10,18.0,12.9,9.0,18.0,12.9,9.0,100,100,100,0.00,40.00,20,10,32,0.00
2013-12-11,28.0,19.7,13.0,19.0,13.5,6.0,100,80,41,0.00,40.00,13,5,18,0.00
2013-12-12,34.0,29.7,25.0,8.0,1.9,-8.0,41,30,22,0.00,40.00,17,8,23,0.00
2013-12-13,26.0,20.0,14.0,19.0,9.7,-7.0,100,71,23,0.00,40.00,18,10,37,0.00
2013-12-14,26.0,18.0,13.0,23.0,11.0,-99.9,100,81,32,0.00,40.00,15,8,35,0.00
2013-12-15,37.0,30.7,26.0,23.0,12.2,3.0,88,47,29,0.00,40.00,23,11,38,0.00
2013-12-16,36.0,31.7,28.0,19.0,9.5,-9.0,60,40,17,0.00,40.00,18,8,30,0.00
2013-12-17,44.0,37.0,31.0,5.0,0.7,-9.0,26,21,15,0.00,40.00,13,6,22,0.00
2013-12-18,40.0,34.0,27.0,28.0,8.1,-1.0,100,40,20,0.00,40.00,22,9,34,0.00
2013-12-19,29.0,23.1,17.0,29.0,23.1,17.0,100,100,100,0.00,40.00,25,12,52,0.00
2013-12-20,19.0,12.8,8.0,19.0,12.8,8.0,100,100,100,0.00,40.00,15,5,22,0.00
2013-12-21,18.0,15.1,10.0,18.0,15.1,10.0,100,100,100,0.00,40.00,18,8,35,0.00
2013-12-24,23.0,17.3,13.0,18.0,9.2,-7.0,100,73,36,0.00,40.00,16,7,30,0.00
2013-12-25,22.0,20.9,18.0,-8.0,-10.6,-14.0,28,24,20,0.00,40.00,10,7,24,0.00
2013-12-26,38.0,31.7,27.0,20.0,11.5,-5.0,72,45,16,0.00,40.00,9,6,26,0.00
2013-12-27,40.0,33.3,27.0,27.0,15.6,8.0,100,49,29,0.00,40.00,11,5,15,0.00
2013-12-28,36.0,25.6,11.0,19.0,9.6,-99.9,100,58,24,0.00,40.00,13,8,29,0.00
2013-12-29,28.0,15.4,10.0,11.0,2.2,-13.0,100,67,20,0.00,40.00,10,7,24,0.00
2013-12-30,31.0,25.0,22.0,26.0,23.1,18.0,100,93,57,0.00,40.00,13,5,24,0.00
2013-12-31,27.0,25.3,24.0,27.0,25.3,24.0,100,100,100,0.00,40.00,20,10,29,0.00
2014-1-1,33.0,24.7,22.0,22.0,9.4,-7.0,83,54,26,0.00,40.00,10,6,21,0.00
2014-1-2,34.0,27.1,23.0,12.0,2.5,-4.0,41,34,28,0.00,40.00,10,7,21,0.00